Time,TemperatureF,DewpointF,PressureIn,WindDirection,WindDirectionDegrees,WindSpeedMPH,WindSpeedGustMPH,Humidity,HourlyPrecipIn,Conditions,Clouds,dailyrainin,SoftwareType,DateUTC
2013-11-21 00:04:00,57.4,34.5,29.88,NW,315,0.0,0.0,42,0.00,,---,0.00,VWS V14.01,2013-11-21 07:04:00,
2013-11-21 00:09:00,57.0,34.8,29.88,NW,315,0.0,0.0,43,0.00,,---,0.00,VWS V14.01,2013-11-21 07:09:00,
2013-11-21 00:14:00,56.8,34.6,29.88,NW,315,0.0,0.0,43,0.00,,---,0.00,VWS V14.01,2013-11-21 07:14:00,
2013-11-21 00:19:00,56.8,35.2,29.88,NW,315,0.0,0.0,44,0.00,,---,0.00,VWS V14.01,2013-11-21 07:19:00,
2013-11-21 00:24:00,56.8,35.2,29.88,NW,315,0.0,0.0,44,0.00,,---,0.00,VWS V14.01,2013-11-21 07:24:00,
2013-11-21 00:29:00,56.7,35.0,29.88,NW,315,0.0,0.0,44,0.00,,---,0.00,VWS V14.01,2013-11-21 07:29:00,
2013-11-21 00:34:00,56.7,35.0,29.88,NW,315,0.0,0.0,44,0.00,,---,0.00,VWS V14.01,2013-11-21 07:34:00,
2013-11-21 00:39:00,56.7,35.6,29.88,NW,315,0.0,0.0,45,0.00,,---,0.00,VWS V14.01,2013-11-21 07:39:00,
2013-11-21 00:44:00,56.8,35.7,29.88,NW,315,0.0,0.0,45,0.00,,---,0.00,VWS V14.01,2013-11-21 07:44:00,
2013-11-21 00:49:00,56.8,35.7,29.88,NW,315,0.0,0.0,45,0.00,,---,0.00,VWS V14.01,2013-11-21 07:49:00,
2013-11-21 00:54:00,56.8,35.7,29.88,NW,315,0.0,0.0,45,0.00,,---,0.00,VWS V14.01,2013-11-21 07:54:00,
2013-11-21 00:59:00,57.0,35.9,29.88,NW,315,0.0,0.0,45,0.00,,---,0.00,VWS V14.01,2013-11-21 07:59:00,
2013-11-21 01:04:00,57.0,35.9,29.88,NW,315,0.0,0.0,45,0.00,,---,0.00,VWS V14.01,2013-11-21 08:04:00,
2013-11-21 01:10:00,57.2,36.1,29.88,NW,315,0.0,0.0,45,0.00,,---,0.00,VWS V14.01,2013-11-21 08:10:00,
2013-11-21 01:15:00,57.2,36.6,29.88,NW,315,0.0,0.0,46,0.00,,---,0.00,VWS V14.01,2013-11-21 08:15:00,
2013-11-21 01:20:00,57.2,36.1,29.88,NW,315,0.0,0.0,45,0.00,,---,0.00,VWS V14.01,2013-11-21 08:20:00,
2013-11-21 01:25:00,57.0,36.5,29.88,NW,315,0.0,0.0,46,0.00,,---,0.00,VWS V14.01,2013-11-21 08:25:00,
2013-11-21 01:30:00,56.8,35.7,29.88,NE,45,0.0,1.6,45,0.00,,---,0.00,VWS V14.01,2013-11-21 08:30:00,
2013-11-21 01:35:00,56.7,35.6,29.88,NNE,22,0.0,0.0,45,0.00,,---,0.00,VWS V14.01,2013-11-21 08:35:00,
2013-11-21 01:40:00,56.7,36.1,29.88,NNW,338,1.3,1.3,46,0.00,,---,0.00,VWS V14.01,2013-11-21 08:40:00,
2013-11-21 01:45:00,56.7,36.7,29.88,NW,315,1.3,1.3,47,0.00,,---,0.00,VWS V14.01,2013-11-21 08:45:00,
2013-11-21 01:50:00,56.8,36.3,29.88,NW,315,0.0,0.9,46,0.00,,---,0.00,VWS V14.01,2013-11-21 08:50:00,
2013-11-21 01:55:00,57.2,37.2,29.88,NW,315,0.9,0.9,47,0.00,,---,0.00,VWS V14.01,2013-11-21 08:55:00,
2013-11-21 02:00:00,57.4,37.3,29.88,NW,315,0.0,0.0,47,0.00,,---,0.00,VWS V14.01,2013-11-21 09:00:00,
2013-11-21 02:05:00,57.6,37.0,29.88,NW,315,1.1,1.1,46,0.00,,---,0.00,VWS V14.01,2013-11-21 09:05:00,
2013-11-21 02:11:00,57.7,37.1,29.88,NW,315,1.3,1.3,46,0.00,,---,0.00,VWS V14.01,2013-11-21 09:11:00,
2013-11-21 02:16:00,57.9,37.3,29.88,NW,315,2.2,2.2,46,0.00,,---,0.00,VWS V14.01,2013-11-21 09:16:00,
2013-11-21 02:21:00,58.1,37.5,29.88,NW,315,1.6,1.6,46,0.00,,---,0.00,VWS V14.01,2013-11-21 09:21:00,
2013-11-21 02:26:00,58.1,37.5,29.88,WNW,292,0.0,1.6,46,0.00,,---,0.00,VWS V14.01,2013-11-21 09:26:00,
2013-11-21 02:31:00,58.1,37.5,29.88,WNW,292,0.0,0.0,46,0.00,,---,0.00,VWS V14.01,2013-11-21 09:31:00,
2013-11-21 02:36:00,58.1,37.5,29.88,WNW,292,0.0,0.0,46,0.00,,---,0.00,VWS V14.01,2013-11-21 09:36:00,
2013-11-21 02:41:00,58.1,37.5,29.88,WNW,292,0.0,0.0,46,0.00,,---,0.00,VWS V14.01,2013-11-21 09:41:00,
2013-11-21 02:46:00,58.1,37.5,29.88,WNW,292,0.0,0.0,46,0.00,,---,0.00,VWS V14.01,2013-11-21 09:46:00,
2013-11-21 02:51:00,58.1,37.5,29.88,WNW,292,0.0,0.0,46,0.00,,---,0.00,VWS V14.01,2013-11-21 09:51:00,
2013-11-21 02:56:00,57.9,36.7,29.88,South,180,0.0,0.0,45,0.00,,---,0.00,VWS V14.01,2013-11-21 09:56:00,
2013-11-21 03:01:00,57.9,37.3,29.88,South,180,0.0,0.0,46,0.00,,---,0.00,VWS V14.01,2013-11-21 10:01:00,
2013-11-21 03:06:00,57.9,37.3,29.88,WSW,248,0.0,2.5,46,0.00,,---,0.00,VWS V14.01,2013-11-21 10:06:00,
2013-11-21 03:11:00,57.9,37.3,29.88,WSW,248,0.0,1.1,46,0.00,,---,0.00,VWS V14.01,2013-11-21 10:11:00,
2013-11-21 03:16:00,57.9,37.3,29.88,WSW,248,0.0,0.0,46,0.00,,---,0.00,VWS V14.01,2013-11-21 10:16:00,
2013-11-21 03:21:00,57.7,37.1,29.88,WSW,248,0.0,0.0,46,0.00,,---,0.00,VWS V14.01,2013-11-21 10:21:00,
2013-11-21 03:26:00,57.7,37.1,29.88,WNW,292,0.9,0.9,46,0.00,,---,0.00,VWS V14.01,2013-11-21 10:26:00,
2013-11-21 03:31:00,57.9,37.3,29.88,WNW,292,0.0,0.0,46,0.00,,---,0.00,VWS V14.01,2013-11-21 10:31:00,
2013-11-21 03:37:00,57.7,37.1,29.88,WNW,292,0.0,0.0,46,0.00,,---,0.00,VWS V14.01,2013-11-21 10:37:00,
2013-11-21 03:42:00,57.6,37.0,29.88,WNW,292,0.0,0.0,46,0.00,,---,0.00,VWS V14.01,2013-11-21 10:42:00,
2013-11-21 03:47:00,57.4,36.8,29.88,WNW,292,0.0,0.0,46,0.00,,---,0.00,VWS V14.01,2013-11-21 10:47:00,
2013-11-21 03:52:00,57.4,36.8,29.88,WNW,292,0.0,0.0,46,0.00,,---,0.00,VWS V14.01,2013-11-21 10:52:00,
2013-11-21 03:57:00,57.2,36.6,29.85,WNW,292,0.0,0.0,46,0.00,,---,0.00,VWS V14.01,2013-11-21 10:57:00,
2013-11-21 04:02:00,57.2,37.2,29.85,WNW,292,0.0,0.0,47,0.00,,---,0.00,VWS V14.01,2013-11-21 11:02:00,
2013-11-21 04:07:00,57.2,37.2,29.85,WNW,292,0.0,0.0,47,0.00,,---,0.00,VWS V14.01,2013-11-21 11:07:00,
2013-11-21 04:12:00,57.2,37.2,29.85,WNW,292,0.0,0.0,47,0.00,,---,0.00,VWS V14.01,2013-11-21 11:12:00,
2013-11-21 04:17:00,57.0,37.5,29.85,WNW,292,0.0,0.0,48,0.00,,---,0.00,VWS V14.01,2013-11-21 11:17:00,
2013-11-21 04:22:00,56.8,36.8,29.85,NW,315,0.0,0.0,47,0.00,,---,0.00,VWS V14.01,2013-11-21 11:22:00,
2013-11-21 04:27:00,56.8,37.4,29.85,NW,315,0.0,0.0,48,0.00,,---,0.00,VWS V14.01,2013-11-21 11:27:00,
2013-11-21 04:32:00,56.7,36.7,29.85,NW,315,0.0,1.1,47,0.00,,---,0.00,VWS V14.01,2013-11-21 11:32:00,
2013-11-21 04:37:00,56.5,37.0,29.85,NNW,338,0.0,0.0,48,0.00,,---,0.00,VWS V14.01,2013-11-21 11:37:00,
2013-11-21 04:42:00,56.5,37.0,29.85,WSW,248,2.0,2.0,48,0.00,,---,0.00,VWS V14.01,2013-11-21 11:42:00,
2013-11-21 04:47:00,56.5,37.0,29.85,NNW,338,0.0,0.0,48,0.00,,---,0.00,VWS V14.01,2013-11-21 11:47:00,
2013-11-21 04:52:00,56.5,37.0,29.85,NW,315,1.1,1.1,48,0.00,,---,0.00,VWS V14.01,2013-11-21 11:52:00,
2013-11-21 04:57:00,56.3,36.9,29.85,NW,315,0.0,0.0,48,0.00,,---,0.00,VWS V14.01,2013-11-21 11:57:00,
2013-11-21 05:03:00,56.3,36.9,29.85,NW,315,0.0,0.0,48,0.00,,---,0.00,VWS V14.01,2013-11-21 12:03:00,
2013-11-21 05:08:00,55.9,36.5,29.85,North,0,0.0,0.0,48,0.00,,---,0.00,VWS V14.01,2013-11-21 12:08:00,
2013-11-21 05:13:00,55.8,36.4,29.85,North,0,0.0,0.0,48,0.00,,---,0.00,VWS V14.01,2013-11-21 12:13:00,
2013-11-21 05:18:00,55.6,36.2,29.85,North,0,0.0,0.0,48,0.00,,---,0.00,VWS V14.01,2013-11-21 12:18:00,
2013-11-21 05:23:00,55.4,36.6,29.85,North,0,0.0,0.0,49,0.00,,---,0.00,VWS V14.01,2013-11-21 12:23:00,
2013-11-21 05:28:00,55.0,36.2,29.85,North,0,0.0,0.0,49,0.00,,---,0.00,VWS V14.01,2013-11-21 12:28:00,
2013-11-21 05:33:00,55.0,36.2,29.85,North,0,0.0,0.0,49,0.00,,---,0.00,VWS V14.01,2013-11-21 12:33:00,
2013-11-21 05:38:00,55.0,36.2,29.85,North,0,0.0,0.0,49,0.00,,---,0.00,VWS V14.01,2013-11-21 12:38:00,
2013-11-21 05:43:00,55.0,36.2,29.88,North,0,0.0,0.0,49,0.00,,---,0.00,VWS V14.01,2013-11-21 12:43:00,
2013-11-21 05:48:00,54.9,36.6,29.88,North,0,0.0,0.0,50,0.00,,---,0.00,VWS V14.01,2013-11-21 12:48:00,
2013-11-21 05:53:00,54.7,36.4,29.88,NW,315,0.0,0.0,50,0.00,,---,0.00,VWS V14.01,2013-11-21 12:53:00,
2013-11-21 05:59:00,54.5,35.8,29.88,NW,315,0.0,0.0,49,0.00,,---,0.00,VWS V14.01,2013-11-21 12:59:00,
2013-11-21 06:04:00,54.3,35.6,29.88,NW,315,0.0,0.0,49,0.00,,---,0.00,VWS V14.01,2013-11-21 13:04:00,
2013-11-21 06:09:00,54.1,35.4,29.88,NW,315,0.0,0.0,49,0.00,,---,0.00,VWS V14.01,2013-11-21 13:09:00,
2013-11-21 06:14:00,54.0,35.8,29.88,NW,315,0.0,0.0,50,0.00,,---,0.00,VWS V14.01,2013-11-21 13:14:00,
2013-11-21 06:19:00,53.8,36.1,29.88,NW,315,1.1,1.1,51,0.00,,---,0.00,VWS V14.01,2013-11-21 13:19:00,
2013-11-21 06:24:00,53.6,35.4,29.88,NW,315,0.0,1.1,50,0.00,,---,0.00,VWS V14.01,2013-11-21 13:24:00,
2013-11-21 06:29:00,53.2,35.6,29.88,NW,315,0.9,0.9,51,0.00,,---,0.00,VWS V14.01,2013-11-21 13:29:00,
2013-11-21 06:34:00,53.1,35.9,29.88,NW,315,0.0,0.0,52,0.00,,---,0.00,VWS V14.01,2013-11-21 13:34:00,
2013-11-21 06:39:00,52.9,35.8,29.88,NNW,338,0.0,0.0,52,0.00,,---,0.00,VWS V14.01,2013-11-21 13:39:00,
2013-11-21 06:44:00,52.9,36.2,29.88,NNW,338,0.0,0.0,53,0.00,,---,0.00,VWS V14.01,2013-11-21 13:44:00,
2013-11-21 06:49:00,52.7,35.6,29.88,NNW,338,0.0,0.0,52,0.00,,---,0.00,VWS V14.01,2013-11-21 13:49:00,
2013-11-21 06:54:00,52.5,35.4,29.88,NNW,338,1.6,1.6,52,0.00,,---,0.00,VWS V14.01,2013-11-21 13:54:00,
2013-11-21 06:59:00,52.5,35.9,29.88,NNW,338,0.0,0.0,53,0.00,,---,0.00,VWS V14.01,2013-11-21 13:59:00,
2013-11-21 07:04:00,52.3,35.2,29.88,NNW,338,0.0,0.0,52,0.00,,---,0.00,VWS V14.01,2013-11-21 14:04:00,
2013-11-21 07:09:00,52.3,35.2,29.91,NNW,338,0.0,1.3,52,0.00,,---,0.00,VWS V14.01,2013-11-21 14:09:00,
2013-11-21 07:15:00,52.3,35.7,29.91,NW,315,0.9,0.9,53,0.00,,---,0.00,VWS V14.01,2013-11-21 14:15:00,
2013-11-21 07:20:00,52.3,35.2,29.91,NW,315,0.0,1.3,52,0.00,,---,0.00,VWS V14.01,2013-11-21 14:20:00,
2013-11-21 07:25:00,52.3,36.2,29.91,NW,315,0.0,0.0,54,0.00,,---,0.00,VWS V14.01,2013-11-21 14:25:00,
2013-11-21 07:30:00,52.3,35.7,29.91,NW,315,0.0,0.0,53,0.00,,---,0.00,VWS V14.01,2013-11-21 14:30:00,
2013-11-21 07:35:00,52.2,35.6,29.91,NW,315,0.0,2.0,53,0.00,,---,0.00,VWS V14.01,2013-11-21 14:35:00,
2013-11-21 07:40:00,52.3,36.2,29.91,NNW,338,0.0,1.6,54,0.00,,---,0.00,VWS V14.01,2013-11-21 14:40:00,
2013-11-21 07:45:00,52.5,36.8,29.91,North,0,0.0,0.0,55,0.00,,---,0.00,VWS V14.01,2013-11-21 14:45:00,
2013-11-21 07:50:00,52.7,36.1,29.91,WNW,292,1.6,1.6,53,0.00,,---,0.00,VWS V14.01,2013-11-21 14:50:00,
2013-11-21 07:55:00,52.9,36.7,29.91,NNW,338,0.0,0.0,54,0.00,,---,0.00,VWS V14.01,2013-11-21 14:55:00,
2013-11-21 08:00:00,53.1,36.9,29.91,WNW,292,0.0,2.0,54,0.00,,---,0.00,VWS V14.01,2013-11-21 15:00:00,
2013-11-21 08:05:00,53.4,36.7,29.91,NNW,338,0.0,0.0,53,0.00,,---,0.00,VWS V14.01,2013-11-21 15:05:00,
2013-11-21 08:10:00,53.8,37.5,29.91,NNW,338,0.0,0.0,54,0.00,,---,0.00,VWS V14.01,2013-11-21 15:10:00,
2013-11-21 08:15:00,54.0,37.2,29.91,NW,315,0.0,0.0,53,0.00,,---,0.00,VWS V14.01,2013-11-21 15:15:00,
2013-11-21 08:20:00,54.1,37.4,29.91,NW,315,0.0,0.0,53,0.00,,---,0.00,VWS V14.01,2013-11-21 15:20:00,
2013-11-21 08:25:00,54.5,38.2,29.91,NW,315,0.0,0.0,54,0.00,,---,0.00,VWS V14.01,2013-11-21 15:25:00,
2013-11-21 08:30:00,55.6,38.7,29.91,NW,315,0.0,0.0,53,0.00,,---,0.00,VWS V14.01,2013-11-21 15:30:00,
2013-11-21 08:36:00,56.7,39.7,29.91,NW,315,0.0,0.0,53,0.00,,---,0.00,VWS V14.01,2013-11-21 15:36:00,
2013-11-21 08:41:00,57.6,40.6,29.91,WNW,292,0.0,0.0,53,0.00,,---,0.00,VWS V14.01,2013-11-21 15:41:00,
2013-11-21 08:46:00,58.5,40.9,29.91,West,270,2.2,2.2,52,0.00,,---,0.00,VWS V14.01,2013-11-21 15:46:00,
2013-11-21 08:51:00,59.2,40.6,29.91,WSW,248,2.2,2.2,50,0.00,,---,0.00,VWS V14.01,2013-11-21 15:51:00,
2013-11-21 08:56:00,60.1,40.9,29.91,SW,225,1.6,1.6,49,0.00,,---,0.00,VWS V14.01,2013-11-21 15:56:00,
2013-11-21 09:01:00,61.2,40.8,29.91,SSW,202,0.9,0.9,47,0.00,,---,0.00,VWS V14.01,2013-11-21 16:01:00,
2013-11-21 09:06:00,61.7,41.3,29.91,SSW,202,1.3,2.0,47,0.00,,---,0.00,VWS V14.01,2013-11-21 16:06:00,
2013-11-21 09:11:00,62.8,41.2,29.91,WSW,248,1.1,1.1,45,0.00,,---,0.00,VWS V14.01,2013-11-21 16:11:00,
2013-11-21 09:16:00,63.5,41.2,29.91,SSW,202,1.3,2.0,44,0.00,,---,0.00,VWS V14.01,2013-11-21 16:16:00,
2013-11-21 09:21:00,64.2,41.9,29.91,WSW,248,2.5,2.5,44,0.00,,---,0.00,VWS V14.01,2013-11-21 16:21:00,
2013-11-21 09:26:00,65.1,42.1,29.91,SSE,158,3.1,3.1,43,0.00,,---,0.00,VWS V14.01,2013-11-21 16:26:00,
2013-11-21 09:31:00,65.8,41.5,29.91,SW,225,1.6,1.6,41,0.00,,---,0.00,VWS V14.01,2013-11-21 16:31:00,
2013-11-21 09:37:00,66.0,41.0,29.91,SSW,202,1.3,1.3,40,0.00,,---,0.00,VWS V14.01,2013-11-21 16:37:00,
2013-11-21 09:42:00,66.4,40.7,29.91,SSW,202,1.3,1.3,39,0.00,,---,0.00,VWS V14.01,2013-11-21 16:42:00,
2013-11-21 09:47:00,66.6,40.2,29.91,SSW,202,1.3,1.3,38,0.00,,---,0.00,VWS V14.01,2013-11-21 16:47:00,
2013-11-21 09:52:00,66.6,40.2,29.91,SSW,202,1.3,1.3,38,0.00,,---,0.00,VWS V14.01,2013-11-21 16:52:00,
2013-11-21 09:57:00,66.6,39.5,29.91,SSW,202,1.3,1.3,37,0.00,,---,0.00,VWS V14.01,2013-11-21 16:57:00,
2013-11-21 10:02:00,67.1,40.0,29.91,SSW,202,1.3,1.3,37,0.00,,---,0.00,VWS V14.01,2013-11-21 17:02:00,
2013-11-21 10:07:00,67.5,40.3,29.91,SSW,202,1.3,1.3,37,0.00,,---,0.00,VWS V14.01,2013-11-21 17:07:00,
2013-11-21 10:12:00,68.0,40.1,29.91,SSW,202,1.3,1.3,36,0.00,,---,0.00,VWS V14.01,2013-11-21 17:12:00,
2013-11-21 10:17:00,69.1,41.0,29.91,SSW,202,1.3,1.3,36,0.00,,---,0.00,VWS V14.01,2013-11-21 17:17:00,
2013-11-21 10:22:00,70.3,41.4,29.91,SSW,202,1.3,1.3,35,0.00,,---,0.00,VWS V14.01,2013-11-21 17:22:00,
2013-11-21 10:27:00,70.9,41.1,29.91,SSW,202,1.3,1.3,34,0.00,,---,0.00,VWS V14.01,2013-11-21 17:27:00,
2013-11-21 10:32:00,71.1,40.5,29.91,SSW,202,1.3,1.3,33,0.00,,---,0.00,VWS V14.01,2013-11-21 17:32:00,
2013-11-21 10:37:00,71.2,40.7,29.91,SSW,202,1.3,1.3,33,0.00,,---,0.00,VWS V14.01,2013-11-21 17:37:00,
2013-11-21 10:43:00,72.0,40.5,29.91,SSW,202,1.3,1.3,32,0.00,,---,0.00,VWS V14.01,2013-11-21 17:43:00,
2013-11-21 10:48:00,72.7,41.2,29.91,SSW,202,1.3,1.3,32,0.00,,---,0.00,VWS V14.01,2013-11-21 17:48:00,
2013-11-21 10:53:00,73.0,41.5,29.91,SSW,202,1.3,1.3,32,0.00,,---,0.00,VWS V14.01,2013-11-21 17:53:00,
2013-11-21 10:58:00,73.2,40.8,29.91,SSW,202,1.3,1.3,31,0.00,,---,0.00,VWS V14.01,2013-11-21 17:58:00,
2013-11-21 11:03:00,72.5,40.2,29.91,SSW,202,1.3,1.3,31,0.00,,---,0.00,VWS V14.01,2013-11-21 18:03:00,
2013-11-21 11:08:00,71.4,39.2,29.91,SSW,202,1.3,1.3,31,0.00,,---,0.00,VWS V14.01,2013-11-21 18:08:00,
2013-11-21 11:13:00,70.9,38.8,29.91,SSW,202,1.3,1.3,31,0.00,,---,0.00,VWS V14.01,2013-11-21 18:13:00,
2013-11-21 11:18:00,70.2,37.3,29.91,SSW,202,1.3,1.3,30,0.00,,---,0.00,VWS V14.01,2013-11-21 18:18:00,
2013-11-21 11:23:00,70.0,38.0,29.91,SSW,202,1.3,1.3,31,0.00,,---,0.00,VWS V14.01,2013-11-21 18:23:00,
2013-11-21 11:28:00,70.0,38.0,29.91,SSW,202,1.3,1.3,31,0.00,,---,0.00,VWS V14.01,2013-11-21 18:28:00,
2013-11-21 11:33:00,70.2,37.3,29.91,SSW,202,1.3,1.3,30,0.00,,---,0.00,VWS V14.01,2013-11-21 18:33:00,
2013-11-21 11:38:00,70.7,38.6,29.91,SSW,202,1.3,1.3,31,0.00,,---,0.00,VWS V14.01,2013-11-21 18:38:00,
2013-11-21 11:43:00,70.9,38.8,29.91,SSE,158,6.5,6.5,31,0.00,,---,0.00,VWS V14.01,2013-11-21 18:43:00,
2013-11-21 11:49:00,71.1,38.1,29.91,SSE,158,6.5,6.5,30,0.00,,---,0.00,VWS V14.01,2013-11-21 18:49:00,
2013-11-21 11:54:00,71.8,38.7,29.91,SSE,158,6.5,6.5,30,0.00,,---,0.00,VWS V14.01,2013-11-21 18:54:00,
2013-11-21 11:59:00,72.7,39.5,29.91,SSE,158,6.5,6.5,30,0.00,,---,0.00,VWS V14.01,2013-11-21 18:59:00,
2013-11-21 12:04:00,73.4,39.2,29.91,SSE,158,6.5,6.5,29,0.00,,---,0.00,VWS V14.01,2013-11-21 19:04:00,
2013-11-21 12:09:00,73.8,39.5,29.91,SSE,158,6.5,6.5,29,0.00,,---,0.00,VWS V14.01,2013-11-21 19:09:00,
2013-11-21 12:14:00,73.8,39.5,29.91,SSE,158,6.5,6.5,29,0.00,,---,0.00,VWS V14.01,2013-11-21 19:14:00,
2013-11-21 12:19:00,73.6,38.5,29.91,SSE,158,6.5,6.5,28,0.00,,---,0.00,VWS V14.01,2013-11-21 19:19:00,
2013-11-21 12:24:00,73.9,38.8,29.91,SSE,158,6.5,6.5,28,0.00,,---,0.00,VWS V14.01,2013-11-21 19:24:00,
2013-11-21 12:29:00,74.1,39.0,29.91,SW,225,2.5,2.5,28,0.00,,---,0.00,VWS V14.01,2013-11-21 19:29:00,
2013-11-21 12:34:00,73.9,38.8,29.91,SSE,158,2.7,3.8,28,0.00,,---,0.00,VWS V14.01,2013-11-21 19:34:00,
2013-11-21 12:39:00,73.4,38.3,29.91,SW,225,3.8,4.7,28,0.00,,---,0.00,VWS V14.01,2013-11-21 19:39:00,
2013-11-21 12:44:00,73.0,38.9,29.91,SSW,202,2.7,2.7,29,0.00,,---,0.00,VWS V14.01,2013-11-21 19:44:00,
2013-11-21 12:50:00,73.6,39.4,29.91,SSE,158,3.6,3.6,29,0.00,,---,0.00,VWS V14.01,2013-11-21 19:50:00,
2013-11-21 12:54:00,73.9,38.8,29.88,West,270,6.3,6.3,28,0.00,,---,0.00,VWS V14.01,2013-11-21 19:54:00,
2013-11-21 13:00:00,74.1,39.0,29.88,WSW,248,3.4,3.4,28,0.00,,---,0.00,VWS V14.01,2013-11-21 20:00:00,
2013-11-21 13:05:00,75.0,40.6,29.88,WSW,248,3.6,3.6,29,0.00,,---,0.00,VWS V14.01,2013-11-21 20:05:00,
2013-11-21 13:10:00,75.0,39.7,29.88,WNW,292,3.4,3.4,28,0.00,,---,0.00,VWS V14.01,2013-11-21 20:10:00,
2013-11-21 13:15:00,75.2,39.9,29.88,SE,135,2.5,2.5,28,0.00,,---,0.00,VWS V14.01,2013-11-21 20:15:00,
2013-11-21 13:20:00,75.6,40.2,29.88,SE,135,2.0,2.0,28,0.00,,---,0.00,VWS V14.01,2013-11-21 20:20:00,
2013-11-21 13:25:00,75.2,39.9,29.88,SSW,202,1.6,1.6,28,0.00,,---,0.00,VWS V14.01,2013-11-21 20:25:00,
2013-11-21 13:30:00,74.8,39.6,29.88,SSW,202,2.5,2.7,28,0.00,,---,0.00,VWS V14.01,2013-11-21 20:30:00,
2013-11-21 13:35:00,74.7,39.4,29.88,SW,225,2.5,3.1,28,0.00,,---,0.00,VWS V14.01,2013-11-21 20:35:00,
2013-11-21 13:40:00,74.5,39.3,29.88,South,180,2.5,2.5,28,0.00,,---,0.00,VWS V14.01,2013-11-21 20:40:00,
2013-11-21 13:45:00,74.3,39.1,29.88,South,180,2.7,2.7,28,0.00,,---,0.00,VWS V14.01,2013-11-21 20:45:00,
2013-11-21 13:50:00,74.3,40.0,29.88,SW,225,1.3,1.3,29,0.00,,---,0.00,VWS V14.01,2013-11-21 20:50:00,
2013-11-21 13:56:00,74.3,40.0,29.88,South,180,3.8,3.8,29,0.00,,---,0.00,VWS V14.01,2013-11-21 20:56:00,
2013-11-21 14:01:00,74.5,40.2,29.88,South,180,2.7,2.7,29,0.00,,---,0.00,VWS V14.01,2013-11-21 21:01:00,
2013-11-21 14:06:00,74.5,41.0,29.88,South,180,2.2,2.2,30,0.00,,---,0.00,VWS V14.01,2013-11-21 21:06:00,
2013-11-21 14:11:00,74.3,40.9,29.85,West,270,2.7,2.7,30,0.00,,---,0.00,VWS V14.01,2013-11-21 21:11:00,
2013-11-21 14:16:00,74.5,41.0,29.85,SE,135,1.3,1.3,30,0.00,,---,0.00,VWS V14.01,2013-11-21 21:16:00,
2013-11-21 14:21:00,74.5,41.0,29.85,SE,135,3.1,3.4,30,0.00,,---,0.00,VWS V14.01,2013-11-21 21:21:00,
2013-11-21 14:26:00,74.3,40.9,29.85,SSW,202,1.1,1.3,30,0.00,,---,0.00,VWS V14.01,2013-11-21 21:26:00,
2013-11-21 14:31:00,74.1,40.7,29.85,West,270,2.5,3.6,30,0.00,,---,0.00,VWS V14.01,2013-11-21 21:31:00,
2013-11-21 14:36:00,73.6,40.3,29.85,SSW,202,3.1,3.1,30,0.00,,---,0.00,VWS V14.01,2013-11-21 21:36:00,
2013-11-21 14:41:00,73.2,40.8,29.85,WSW,248,5.4,5.4,31,0.00,,---,0.00,VWS V14.01,2013-11-21 21:41:00,
2013-11-21 14:46:00,73.0,40.6,29.85,WSW,248,6.3,6.3,31,0.00,,---,0.00,VWS V14.01,2013-11-21 21:46:00,
2013-11-21 14:51:00,72.9,40.5,29.85,WSW,248,2.5,2.5,31,0.00,,---,0.00,VWS V14.01,2013-11-21 21:51:00,
2013-11-21 14:56:00,73.0,40.6,29.88,WSW,248,1.3,2.9,31,0.00,,---,0.00,VWS V14.01,2013-11-21 21:56:00,
2013-11-21 15:01:00,73.2,40.8,29.88,WSW,248,2.9,3.6,31,0.00,,---,0.00,VWS V14.01,2013-11-21 22:01:00,
2013-11-21 15:07:00,73.0,40.6,29.88,WSW,248,2.9,3.6,31,0.00,,---,0.00,VWS V14.01,2013-11-21 22:07:00,
2013-11-21 15:12:00,73.0,40.6,29.85,SW,225,2.0,2.0,31,0.00,,---,0.00,VWS V14.01,2013-11-21 22:12:00,
2013-11-21 15:17:00,72.9,40.5,29.85,SW,225,1.3,5.8,31,0.00,,---,0.00,VWS V14.01,2013-11-21 22:17:00,
2013-11-21 15:22:00,72.9,41.3,29.85,SW,225,5.4,5.4,32,0.00,,---,0.00,VWS V14.01,2013-11-21 22:22:00,
2013-11-21 15:27:00,72.9,41.3,29.85,SW,225,4.0,4.0,32,0.00,,---,0.00,VWS V14.01,2013-11-21 22:27:00,
2013-11-21 15:32:00,72.7,41.2,29.85,WSW,248,6.0,6.0,32,0.00,,---,0.00,VWS V14.01,2013-11-21 22:32:00,
2013-11-21 15:37:00,72.3,40.8,29.85,SW,225,2.7,2.7,32,0.00,,---,0.00,VWS V14.01,2013-11-21 22:37:00,
2013-11-21 15:42:00,72.1,40.7,29.85,South,180,2.5,2.5,32,0.00,,---,0.00,VWS V14.01,2013-11-21 22:42:00,
2013-11-21 15:47:00,71.8,40.4,29.85,West,270,3.8,3.8,32,0.00,,---,0.00,VWS V14.01,2013-11-21 22:47:00,
2013-11-21 15:52:00,71.6,40.2,29.85,West,270,3.8,3.8,32,0.00,,---,0.00,VWS V14.01,2013-11-21 22:52:00,
2013-11-21 15:57:00,71.4,40.0,29.85,ENE,68,3.4,3.4,32,0.00,,---,0.00,VWS V14.01,2013-11-21 22:57:00,
2013-11-21 16:02:00,71.2,39.9,29.85,SSW,202,3.1,3.1,32,0.00,,---,0.00,VWS V14.01,2013-11-21 23:02:00,
2013-11-21 16:07:00,71.2,39.9,29.85,WSW,248,0.0,0.0,32,0.00,,---,0.00,VWS V14.01,2013-11-21 23:07:00,
2013-11-21 16:12:00,71.1,39.7,29.85,WSW,248,4.3,4.3,32,0.00,,---,0.00,VWS V14.01,2013-11-21 23:12:00,
2013-11-21 16:18:00,70.9,39.6,29.85,West,270,3.1,3.1,32,0.00,,---,0.00,VWS V14.01,2013-11-21 23:18:00,
2013-11-21 16:23:00,70.7,39.4,29.85,SSW,202,3.1,4.9,32,0.00,,---,0.00,VWS V14.01,2013-11-21 23:23:00,
2013-11-21 16:28:00,70.7,39.4,29.85,WSW,248,3.8,3.8,32,0.00,,---,0.00,VWS V14.01,2013-11-21 23:28:00,
2013-11-21 16:33:00,70.5,39.3,29.85,WSW,248,5.6,5.6,32,0.00,,---,0.00,VWS V14.01,2013-11-21 23:33:00,
2013-11-21 16:38:00,70.3,39.1,29.85,SSW,202,4.3,4.9,32,0.00,,---,0.00,VWS V14.01,2013-11-21 23:38:00,
2013-11-21 16:43:00,70.2,39.0,29.85,WSW,248,2.5,3.6,32,0.00,,---,0.00,VWS V14.01,2013-11-21 23:43:00,
2013-11-21 16:48:00,70.0,38.8,29.85,West,270,4.3,4.3,32,0.00,,---,0.00,VWS V14.01,2013-11-21 23:48:00,
2013-11-21 16:53:00,69.6,38.5,29.85,WSW,248,1.3,1.3,32,0.00,,---,0.00,VWS V14.01,2013-11-21 23:53:00,
2013-11-21 16:58:00,69.3,38.2,29.85,WNW,292,5.4,5.4,32,0.00,,---,0.00,VWS V14.01,2013-11-21 23:58:00,
2013-11-21 17:03:00,69.1,38.8,29.85,West,270,6.5,6.5,33,0.00,,---,0.00,VWS V14.01,2013-11-22 00:03:00,
2013-11-21 17:08:00,68.9,38.6,29.85,West,270,3.1,3.1,33,0.00,,---,0.00,VWS V14.01,2013-11-22 00:08:00,
2013-11-21 17:14:00,68.7,38.5,29.88,WNW,292,6.0,6.0,33,0.00,,---,0.00,VWS V14.01,2013-11-22 00:14:00,
2013-11-21 17:19:00,68.5,38.3,29.88,West,270,2.5,3.8,33,0.00,,---,0.00,VWS V14.01,2013-11-22 00:19:00,
2013-11-21 17:24:00,68.5,38.3,29.88,SW,225,6.5,6.5,33,0.00,,---,0.00,VWS V14.01,2013-11-22 00:24:00,
2013-11-21 17:29:00,68.4,38.2,29.88,WSW,248,1.1,2.5,33,0.00,,---,0.00,VWS V14.01,2013-11-22 00:29:00,
2013-11-21 17:34:00,68.2,38.0,29.88,WSW,248,5.4,5.4,33,0.00,,---,0.00,VWS V14.01,2013-11-22 00:34:00,
2013-11-21 17:39:00,68.0,37.8,29.88,WSW,248,3.4,3.4,33,0.00,,---,0.00,VWS V14.01,2013-11-22 00:39:00,
2013-11-21 17:44:00,68.0,37.8,29.88,WSW,248,2.9,2.9,33,0.00,,---,0.00,VWS V14.01,2013-11-22 00:44:00,
2013-11-21 17:49:00,67.8,38.5,29.88,WNW,292,6.9,6.9,34,0.00,,---,0.00,VWS V14.01,2013-11-22 00:49:00,
2013-11-21 17:54:00,67.6,38.3,29.88,WNW,292,1.3,1.3,34,0.00,,---,0.00,VWS V14.01,2013-11-22 00:54:00,
2013-11-21 17:59:00,67.5,38.1,29.88,NNW,338,1.6,2.2,34,0.00,,---,0.00,VWS V14.01,2013-11-22 00:59:00,
2013-11-21 18:04:00,67.3,38.0,29.88,West,270,0.0,1.1,34,0.00,,---,0.00,VWS V14.01,2013-11-22 01:04:00,
2013-11-21 18:09:00,67.1,37.8,29.88,West,270,1.1,1.1,34,0.00,,---,0.00,VWS V14.01,2013-11-22 01:09:00,
2013-11-21 18:14:00,66.9,38.4,29.91,ESE,112,2.0,2.0,35,0.00,,---,0.00,VWS V14.01,2013-11-22 01:14:00,
2013-11-21 18:19:00,66.7,39.7,29.91,ESE,112,4.3,4.3,37,0.00,,---,0.00,VWS V14.01,2013-11-22 01:19:00,
2013-11-21 18:24:00,66.2,42.5,29.91,ESE,112,4.3,4.3,42,0.00,,---,0.00,VWS V14.01,2013-11-22 01:24:00,
2013-11-21 18:29:00,65.7,43.2,29.91,ESE,112,6.7,6.7,44,0.00,,---,0.00,VWS V14.01,2013-11-22 01:29:00,
2013-11-21 18:34:00,65.3,42.8,29.91,East,90,4.3,4.3,44,0.00,,---,0.00,VWS V14.01,2013-11-22 01:34:00,
2013-11-21 18:39:00,64.8,44.6,29.91,East,90,6.0,6.0,48,0.00,,---,0.00,VWS V14.01,2013-11-22 01:39:00,
2013-11-21 18:44:00,63.5,48.5,29.91,East,90,6.0,6.0,58,0.00,,---,0.00,VWS V14.01,2013-11-22 01:44:00,
2013-11-21 18:49:00,62.6,50.3,29.91,NW,315,1.3,1.3,64,0.00,,---,0.00,VWS V14.01,2013-11-22 01:49:00,
2013-11-21 18:55:00,61.7,49.0,29.91,NW,315,1.3,1.3,63,0.00,,---,0.00,VWS V14.01,2013-11-22 01:55:00,
2013-11-21 19:00:00,61.2,50.1,29.91,NW,315,1.3,1.3,67,0.00,,---,0.00,VWS V14.01,2013-11-22 02:00:00,
2013-11-21 19:05:00,61.0,50.0,29.91,NW,315,1.3,1.3,67,0.00,,---,0.00,VWS V14.01,2013-11-22 02:05:00,
2013-11-21 19:08:00,60.8,49.8,29.91,NW,315,1.3,1.3,67,0.00,,---,0.00,VWS V14.01,2013-11-22 02:08:00,
2013-11-21 19:09:00,60.8,49.8,29.91,NW,315,1.3,1.3,67,0.00,,---,0.00,VWS V14.01,2013-11-22 02:09:00,
2013-11-21 19:14:00,60.6,50.4,29.91,NW,315,1.3,1.3,69,0.00,,---,0.00,VWS V14.01,2013-11-22 02:14:00,
2013-11-21 19:20:00,60.4,50.2,29.91,NW,315,1.3,1.3,69,0.00,,---,0.00,VWS V14.01,2013-11-22 02:20:00,
2013-11-21 19:25:00,60.4,49.4,29.91,NNW,338,1.3,1.3,67,0.00,,---,0.00,VWS V14.01,2013-11-22 02:25:00,
2013-11-21 19:30:00,60.6,49.2,29.91,NNW,338,2.7,2.7,66,0.00,,---,0.00,VWS V14.01,2013-11-22 02:30:00,
2013-11-21 19:35:00,60.6,49.2,29.91,North,0,3.6,3.6,66,0.00,,---,0.00,VWS V14.01,2013-11-22 02:35:00,
2013-11-21 19:40:00,60.6,49.2,29.91,NW,315,4.3,4.3,66,0.00,,---,0.00,VWS V14.01,2013-11-22 02:40:00,
2013-11-21 19:45:00,60.6,49.2,29.91,NW,315,4.3,4.3,66,0.00,,---,0.00,VWS V14.01,2013-11-22 02:45:00,
2013-11-21 19:50:00,60.6,49.2,29.91,NW,315,4.3,4.3,66,0.00,,---,0.00,VWS V14.01,2013-11-22 02:50:00,
2013-11-21 19:55:00,60.6,48.8,29.91,North,0,1.6,1.6,65,0.00,,---,0.00,VWS V14.01,2013-11-22 02:55:00,
2013-11-21 20:00:00,60.6,48.4,29.91,NNW,338,2.9,2.9,64,0.00,,---,0.00,VWS V14.01,2013-11-22 03:00:00,
2013-11-21 20:05:00,60.6,48.8,29.91,NNW,338,2.5,3.1,65,0.00,,---,0.00,VWS V14.01,2013-11-22 03:05:00,
2013-11-21 20:10:00,60.6,48.8,29.91,North,0,1.3,1.3,65,0.00,,---,0.00,VWS V14.01,2013-11-22 03:10:00,
2013-11-21 20:15:00,60.6,49.2,29.91,NNW,338,4.0,4.0,66,0.00,,---,0.00,VWS V14.01,2013-11-22 03:15:00,
2013-11-21 20:21:00,60.6,48.8,29.91,NNW,338,2.5,2.5,65,0.00,,---,0.00,VWS V14.01,2013-11-22 03:21:00,
2013-11-21 20:26:00,60.6,48.8,29.91,North,0,1.6,1.6,65,0.00,,---,0.00,VWS V14.01,2013-11-22 03:26:00,
2013-11-21 20:31:00,60.6,48.0,29.91,NNW,338,2.7,2.7,63,0.00,,---,0.00,VWS V14.01,2013-11-22 03:31:00,
2013-11-21 20:36:00,60.6,49.6,29.91,NNW,338,2.7,2.7,67,0.00,,---,0.00,VWS V14.01,2013-11-22 03:36:00,
2013-11-21 20:41:00,60.4,49.4,29.91,NW,315,2.9,2.9,67,0.00,,---,0.00,VWS V14.01,2013-11-22 03:41:00,
2013-11-21 20:46:00,60.3,49.3,29.91,NW,315,2.9,2.9,67,0.00,,---,0.00,VWS V14.01,2013-11-22 03:46:00,
2013-11-21 20:51:00,60.1,50.7,29.91,NW,315,2.9,2.9,71,0.00,,---,0.00,VWS V14.01,2013-11-22 03:51:00,
2013-11-21 20:56:00,59.9,50.5,29.91,NW,315,0.0,2.9,71,0.00,,---,0.00,VWS V14.01,2013-11-22 03:56:00,
2013-11-21 21:01:00,59.5,51.3,29.91,NW,315,1.1,1.1,74,0.00,,---,0.00,VWS V14.01,2013-11-22 04:01:00,
2013-11-21 21:06:00,59.4,50.7,29.91,NW,315,1.1,1.1,73,0.00,,---,0.00,VWS V14.01,2013-11-22 04:06:00,
2013-11-21 21:11:00,59.4,51.5,29.91,North,0,2.2,2.2,75,0.00,,---,0.00,VWS V14.01,2013-11-22 04:11:00,
2013-11-21 21:16:00,59.2,51.6,29.91,NE,45,2.5,2.5,76,0.00,,---,0.00,VWS V14.01,2013-11-22 04:16:00,
2013-11-21 21:21:00,59.2,50.5,29.91,ENE,68,0.0,0.0,73,0.00,,---,0.00,VWS V14.01,2013-11-22 04:21:00,
2013-11-21 21:26:00,59.0,51.5,29.91,ENE,68,0.0,0.0,76,0.00,,---,0.00,VWS V14.01,2013-11-22 04:26:00,
2013-11-21 21:31:00,59.0,50.7,29.91,ENE,68,0.0,0.0,74,0.00,,---,0.00,VWS V14.01,2013-11-22 04:31:00,
2013-11-21 21:37:00,59.0,51.1,29.91,ENE,68,0.0,0.0,75,0.00,,---,0.00,VWS V14.01,2013-11-22 04:37:00,
2013-11-21 21:42:00,59.0,51.5,29.91,ENE,68,0.0,0.0,76,0.00,,---,0.00,VWS V14.01,2013-11-22 04:42:00,
2013-11-21 21:47:00,58.8,51.6,29.91,ENE,68,0.0,0.0,77,0.00,,---,0.00,VWS V14.01,2013-11-22 04:47:00,
2013-11-21 21:52:00,58.8,50.6,29.91,ENE,68,0.0,0.0,74,0.00,,---,0.00,VWS V14.01,2013-11-22 04:52:00,
2013-11-21 21:57:00,58.8,50.9,29.91,ENE,68,0.0,0.0,75,0.00,,---,0.00,VWS V14.01,2013-11-22 04:57:00,
2013-11-21 22:01:00,58.8,50.6,29.91,ENE,68,0.0,0.0,74,0.00,,---,0.00,VWS V14.01,2013-11-22 05:01:00,
2013-11-21 22:02:00,58.8,50.6,29.91,ENE,68,0.0,0.0,74,0.00,,---,0.00,VWS V14.01,2013-11-22 05:02:00,
2013-11-21 22:07:00,58.6,50.4,29.91,ENE,68,0.0,0.0,74,0.00,,---,0.00,VWS V14.01,2013-11-22 05:07:00,
2013-11-21 22:12:00,58.6,50.4,29.91,ENE,68,0.0,0.0,74,0.00,,---,0.00,VWS V14.01,2013-11-22 05:12:00,
2013-11-21 22:18:00,58.6,50.8,29.91,ENE,68,0.0,0.0,75,0.00,,---,0.00,VWS V14.01,2013-11-22 05:18:00,
2013-11-21 22:23:00,58.6,50.8,29.91,ENE,68,0.0,0.0,75,0.00,,---,0.00,VWS V14.01,2013-11-22 05:23:00,
2013-11-21 22:28:00,58.6,50.8,29.91,ENE,68,0.0,0.0,75,0.00,,---,0.00,VWS V14.01,2013-11-22 05:28:00,
2013-11-21 22:33:00,58.6,50.4,29.91,ENE,68,0.0,0.0,74,0.00,,---,0.00,VWS V14.01,2013-11-22 05:33:00,
2013-11-21 22:38:00,58.6,50.4,29.91,ENE,68,0.0,0.0,74,0.00,,---,0.00,VWS V14.01,2013-11-22 05:38:00,
2013-11-21 22:43:00,58.6,51.1,29.91,ENE,68,0.0,0.0,76,0.00,,---,0.00,VWS V14.01,2013-11-22 05:43:00,
2013-11-21 22:48:00,58.6,51.1,29.91,ENE,68,0.0,0.0,76,0.00,,---,0.00,VWS V14.01,2013-11-22 05:48:00,
2013-11-21 22:53:00,58.5,51.3,29.91,ENE,68,0.0,0.0,77,0.00,,---,0.00,VWS V14.01,2013-11-22 05:53:00,
2013-11-21 22:58:00,58.3,51.1,29.91,ENE,68,0.0,0.0,77,0.00,,---,0.00,VWS V14.01,2013-11-22 05:58:00,
2013-11-21 23:03:00,58.1,51.3,29.91,ENE,68,0.0,0.0,78,0.00,,---,0.00,VWS V14.01,2013-11-22 06:03:00,
2013-11-21 23:08:00,58.1,52.6,29.91,ENE,68,0.0,0.0,82,0.00,,---,0.00,VWS V14.01,2013-11-22 06:08:00,
2013-11-21 23:13:00,57.9,51.8,29.91,ENE,68,0.0,0.0,80,0.00,,---,0.00,VWS V14.01,2013-11-22 06:13:00,
2013-11-21 23:18:00,57.9,52.5,29.91,ENE,68,0.0,0.0,82,0.05,,---,0.05,VWS V14.01,2013-11-22 06:18:00,
2013-11-21 23:24:00,57.9,52.5,29.91,ENE,68,0.0,0.0,82,0.05,,---,0.05,VWS V14.01,2013-11-22 06:24:00,
2013-11-21 23:29:00,57.9,52.8,29.88,ENE,68,0.0,0.0,83,0.05,,---,0.05,VWS V14.01,2013-11-22 06:29:00,
2013-11-21 23:34:00,57.9,53.1,29.88,ENE,68,0.0,0.0,84,0.05,,---,0.05,VWS V14.01,2013-11-22 06:34:00,
2013-11-21 23:39:00,57.9,52.8,29.88,ENE,68,0.0,0.0,83,0.05,,---,0.05,VWS V14.01,2013-11-22 06:39:00,
2013-11-21 23:44:00,58.1,52.3,29.91,ENE,68,0.0,0.0,81,0.05,,---,0.05,VWS V14.01,2013-11-22 06:44:00,
2013-11-21 23:49:00,58.1,52.3,29.91,ENE,68,0.0,0.0,81,0.05,,---,0.05,VWS V14.01,2013-11-22 06:49:00,
2013-11-21 23:54:00,58.1,52.0,29.91,ENE,68,0.0,0.0,80,0.05,,---,0.05,VWS V14.01,2013-11-22 06:54:00,
2013-11-21 23:59:00,58.1,51.6,29.88,ENE,68,0.0,0.0,79,0.05,,---,0.00,VWS V14.01,2013-11-22 06:59:00,